Stirum, ND

7:03 PM CDT on August 25, 2016 (GMT -0500)
Gwinner-melroe

Weather History for KGWR - October, 2013

Change the Weather History Date:

Saturday, October 26, 2013

  Actual Average (KP67) Record (KP67)
Temperature  
Mean Temperature 37 °F -  
Max Temperature 44 °F 46 °F 55 °F (1996)
Min Temperature 30 °F 27 °F 21 °F (1997)
Degree Days  
Heating Degree Days 28    
Moisture  
Dew Point 28 °F    
Average Humidity 71    
Maximum Humidity 93    
Minimum Humidity 49    
Precipitation  
Precipitation 0.00 in - - ()
Sea Level Pressure  
Sea Level Pressure 30.11 in    
Wind  
Wind Speed 12 mph (WNW)    
Max Wind Speed 17 mph    
Max Gust Speed 23 mph    
Visibility 10 miles    
Events      
Averages and records for this station are not official NWS values.
T = Trace of Precipitation, MM = Missing Value Source: NWS Daily Summary

Daily Weather History Graph

Daily Weather History Graph

Search for Another Location

Airport or City:

Trip Planner

Search our weather history database for the weather conditions in past years. The results will help you decide how hot, cold, wet, or windy it might be!

Date:

Astronomy

Oct. 26, 2013 Rise Set
Actual Time 8:03 AM CDT 6:24 PM CDT
Civil Twilight 7:32 AM CDT 6:55 PM CDT
Nautical Twilight 6:57 AM CDT 7:30 PM CDT
Astronomical Twilight 6:22 AM CDT 8:05 PM CDT
Moon No Moon Rise 2:22 PM CDT
Length of Visible Light 11h 23m
Length of Day
10h 21m
Waning Gibbous, 53% of the Moon is Illuminated
Oct 26
Waning Gibbous
Oct 26
Last Quarter
Nov 3
New
Nov 9
First Quarter
Nov 17
Full

Hourly Weather History & Observations

Time (CDT) Temp. Windchill Dew Point Humidity Pressure Visibility Wind Dir Wind Speed Gust Speed Precip Events Conditions
12:15 AM 42.8 °F 36.6 °F 32.0 °F 66% 30.00 in 10.0 mi NNW 11.5 mph - 0.00 in   Clear
12:35 AM 39.2 °F 33.6 °F 32.0 °F 75% 30.00 in 10.0 mi NNW 8.1 mph - 0.00 in   Clear
12:55 AM 37.4 °F 29.8 °F 32.0 °F 81% 30.01 in 10.0 mi NNW 11.5 mph - 0.00 in   Clear
1:15 AM 39.2 °F 33.0 °F 32.0 °F 75% 30.02 in 10.0 mi NW 9.2 mph - 0.00 in   Partly Cloudy
1:35 AM 39.2 °F 32.5 °F 32.0 °F 75% 30.02 in 10.0 mi NW 10.4 mph - 0.00 in   Mostly Cloudy
1:55 AM 39.2 °F 32.0 °F 32.0 °F 75% 30.03 in 10.0 mi NW 11.5 mph - 0.00 in   Scattered Clouds
2:15 AM 37.4 °F 28.9 °F 32.0 °F 81% 30.04 in 10.0 mi NW 13.8 mph 18.4 mph 0.00 in   Scattered Clouds
2:35 AM 37.4 °F 28.5 °F 30.2 °F 75% 30.05 in 10.0 mi NW 15.0 mph 20.7 mph 0.00 in   Scattered Clouds
2:55 AM 37.4 °F 28.9 °F 28.4 °F 70% 30.06 in 10.0 mi NW 13.8 mph - 0.00 in   Clear
3:15 AM 35.6 °F 26.6 °F 28.4 °F 75% 30.07 in 10.0 mi NW 13.8 mph - 0.00 in   Clear
3:35 AM 35.6 °F 26.2 °F 28.4 °F 75% 30.08 in 10.0 mi NW 15.0 mph 19.6 mph 0.00 in   Scattered Clouds
3:55 AM 37.4 °F 28.5 °F 28.4 °F 70% 30.08 in 10.0 mi NNW 15.0 mph - 0.00 in   Mostly Cloudy
4:15 AM 37.4 °F 28.5 °F 26.6 °F 65% 30.09 in 10.0 mi NW 15.0 mph - 0.00 in   Mostly Cloudy
4:35 AM 35.6 °F 26.6 °F 26.6 °F 70% 30.10 in 10.0 mi NW 13.8 mph 19.6 mph 0.00 in   Scattered Clouds
4:55 AM 33.8 °F 24.3 °F 26.6 °F 75% 30.11 in 10.0 mi NW 13.8 mph - 0.00 in   Clear
5:15 AM 33.8 °F 23.9 °F 26.6 °F 75% 30.11 in 10.0 mi NW 15.0 mph - 0.00 in   Clear
5:35 AM 33.8 °F 24.8 °F 26.6 °F 75% 30.12 in 10.0 mi NW 12.7 mph - 0.00 in   Clear
5:55 AM 33.8 °F 24.3 °F 26.6 °F 75% 30.13 in 10.0 mi NW 13.8 mph - 0.00 in   Clear
6:15 AM 33.8 °F 24.3 °F 26.6 °F 75% 30.13 in 10.0 mi NW 13.8 mph - 0.00 in   Clear
6:35 AM 33.8 °F 24.8 °F 26.6 °F 75% 30.13 in 10.0 mi WNW 12.7 mph - 0.00 in   Clear
6:55 AM 32.0 °F 22.5 °F 26.6 °F 80% 30.14 in 10.0 mi WNW 12.7 mph - 0.00 in   Clear
7:15 AM 32.0 °F 22.5 °F 26.6 °F 80% 30.15 in 10.0 mi WNW 12.7 mph - 0.00 in   Clear
7:35 AM 32.0 °F 22.1 °F 26.6 °F 80% 30.15 in 10.0 mi WNW 13.8 mph - 0.00 in   Clear
7:55 AM 32.0 °F 22.1 °F 26.6 °F 80% 30.16 in 10.0 mi WNW 13.8 mph - 0.00 in   Scattered Clouds
8:15 AM 32.0 °F 22.1 °F 26.6 °F 80% 30.16 in 10.0 mi WNW 13.8 mph - 0.00 in   Overcast
8:35 AM 33.8 °F 24.3 °F 26.6 °F 75% 30.17 in 10.0 mi WNW 13.8 mph - 0.00 in   Overcast
8:55 AM 33.8 °F 24.8 °F 28.4 °F 81% 30.18 in 10.0 mi WNW 12.7 mph - 0.00 in   Overcast
9:15 AM 35.6 °F 27.1 °F 28.4 °F 75% 30.17 in 10.0 mi WNW 12.7 mph - 0.00 in   Overcast
9:35 AM 35.6 °F 26.6 °F 28.4 °F 75% 30.19 in 5.0 mi WNW 13.8 mph - 0.00 in   Overcast
9:55 AM 35.6 °F 26.2 °F 28.4 °F 75% 30.20 in 8.0 mi WNW 15.0 mph - 0.00 in   Overcast
10:15 AM 37.4 °F 28.9 °F 28.4 °F 70% 30.20 in 10.0 mi WNW 13.8 mph - 0.00 in   Overcast
10:35 AM 37.4 °F 28.9 °F 28.4 °F 70% 30.19 in 10.0 mi WNW 13.8 mph - 0.00 in   Overcast
10:55 AM 37.4 °F 28.2 °F 28.4 °F 70% 30.20 in 10.0 mi NW 16.1 mph - 0.00 in   Mostly Cloudy
11:15 AM 39.2 °F 30.8 °F 28.4 °F 65% 30.20 in 10.0 mi NW 15.0 mph - 0.00 in   Partly Cloudy
11:35 AM 41.0 °F 33.5 °F 28.4 °F 61% 30.21 in 9.0 mi NW 13.8 mph 20.7 mph 0.00 in   Mostly Cloudy
11:55 AM 42.8 °F 35.4 °F 26.6 °F 53% 30.21 in 7.0 mi NNW 15.0 mph - 0.00 in   Overcast
12:15 PM 42.8 °F 34.8 °F 26.6 °F 53% 30.22 in 9.0 mi NNW 17.3 mph 23.0 mph 0.00 in   Overcast
12:35 PM 42.8 °F 34.8 °F 26.6 °F 53% 30.21 in 8.0 mi NNW 17.3 mph - 0.00 in   Mostly Cloudy
12:55 PM 42.8 °F 35.4 °F 26.6 °F 53% 30.21 in 10.0 mi North 15.0 mph 21.9 mph 0.00 in   Scattered Clouds
1:15 PM 42.8 °F 35.4 °F 26.6 °F 53% 30.21 in 10.0 mi NW 15.0 mph 18.4 mph 0.00 in   Mostly Cloudy
1:35 PM 44.6 °F 38.1 °F 26.6 °F 49% 30.20 in 10.0 mi WNW 13.8 mph 19.6 mph 0.00 in   Scattered Clouds
1:55 PM 44.6 °F 37.4 °F 26.6 °F 49% 30.20 in 10.0 mi NW 16.1 mph - 0.00 in   Scattered Clouds
2:15 PM 44.6 °F 39.2 °F 26.6 °F 49% 30.19 in 10.0 mi NNW 10.4 mph - 0.00 in   Partly Cloudy
2:35 PM 44.6 °F 39.7 °F 26.6 °F 49% 30.18 in 10.0 mi WNW 9.2 mph - 0.00 in   Partly Cloudy
2:55 PM 44.6 °F 39.7 °F 26.6 °F 49% 30.17 in 10.0 mi WNW 9.2 mph 16.1 mph 0.00 in   Partly Cloudy
3:15 PM 44.6 °F 38.4 °F 26.6 °F 49% 30.16 in 10.0 mi WNW 12.7 mph 16.1 mph 0.00 in   Partly Cloudy
3:35 PM 44.6 °F 38.1 °F 26.6 °F 49% 30.16 in 10.0 mi NW 13.8 mph - 0.00 in   Partly Cloudy
3:55 PM 44.6 °F 38.1 °F 26.6 °F 49% 30.16 in 10.0 mi NW 13.8 mph - 0.00 in   Clear
4:15 PM 44.6 °F 38.1 °F 26.6 °F 49% 30.15 in 10.0 mi NW 13.8 mph - 0.00 in   Clear
4:35 PM 44.6 °F 40.2 °F 26.6 °F 49% - - West 8.1 mph - 0.00 in   Clear
5:55 PM 42.8 °F 38.6 °F 28.4 °F 57% 30.11 in 10.0 mi West 6.9 mph - 0.00 in   Unknown
6:15 PM 39.2 °F 35.9 °F 28.4 °F 65% 30.12 in 9.0 mi WNW 4.6 mph - 0.00 in   Clear
6:35 PM 37.4 °F 33.8 °F 28.4 °F 70% 30.11 in 10.0 mi WSW 4.6 mph - 0.00 in   Clear
6:55 PM 35.6 °F 30.7 °F 28.4 °F 75% 30.10 in 8.0 mi WSW 5.8 mph - 0.00 in   Clear
7:15 PM 33.8 °F 27.7 °F 28.4 °F 81% 30.08 in 8.0 mi SSW 6.9 mph - 0.00 in   Clear
7:35 PM 33.8 °F 28.6 °F 28.4 °F 81% 30.08 in 8.0 mi SW 5.8 mph - 0.00 in   Clear
7:55 PM 32.0 °F 26.4 °F 28.4 °F 87% 30.08 in 6.0 mi SW 5.8 mph - 0.00 in   Clear
8:15 PM 32.0 °F 26.4 °F 28.4 °F 87% 30.06 in 8.0 mi SW 5.8 mph - 0.00 in   Clear
8:35 PM 32.0 °F 25.6 °F 28.4 °F 87% 30.05 in 10.0 mi SSW 6.9 mph - 0.00 in   Clear
8:55 PM 32.0 °F 25.6 °F 28.4 °F 87% 30.04 in 10.0 mi SSW 6.9 mph - 0.00 in   Clear
9:15 PM 30.2 °F 21.9 °F 28.4 °F 93% 30.02 in 10.0 mi SSW 9.2 mph - 0.00 in   Clear
9:35 PM 32.0 °F 24.8 °F 28.4 °F 87% 30.02 in 10.0 mi SSW 8.1 mph - 0.00 in   Clear
9:55 PM 32.0 °F 25.6 °F 28.4 °F 87% 30.02 in 10.0 mi SSW 6.9 mph - 0.00 in   Clear
10:15 PM 30.2 °F 22.6 °F 28.4 °F 93% 30.00 in 10.0 mi SSW 8.1 mph - 0.00 in   Clear
10:35 PM 30.2 °F 22.6 °F 28.4 °F 93% 29.98 in 10.0 mi SSW 8.1 mph - 0.00 in   Clear
10:55 PM 32.0 °F 24.2 °F 28.4 °F 87% 29.97 in 10.0 mi SSW 9.2 mph - 0.00 in   Clear
11:15 PM 32.0 °F 23.6 °F 28.4 °F 87% 29.96 in 10.0 mi SSW 10.4 mph - 0.00 in   Clear
11:35 PM 33.8 °F 24.8 °F 30.2 °F 87% 29.95 in 10.0 mi SSW 12.7 mph - 0.00 in   Clear
11:55 PM 33.8 °F 25.3 °F 30.2 °F 87% 29.93 in 10.0 mi SW 11.5 mph - 0.00 in   Clear